Location: *
(46.4000°N, 12.6667°E)
Time: 23:49:15
(UTC+00:00)

Envisat - Visible Passes

Search period start: 05 March 2021 00:00
Search period end: 15 March 2021 00:00
Orbit: 764 x 766 km, 98.1° (Epoch: 05 March)

Date Brightness Start Highest point End Pass type
(mag) Time Alt. Az. Time Alt. Az. Time Alt. Az.
05 Mar 5.7 03:47:15 10° NE 03:51:01 21° E 03:54:46 10° SE visible
06 Mar 3.3 04:48:31 10° NNE 04:53:37 72° ESE 04:58:40 10° S visible
07 Mar 4.8 04:12:01 10° NNE 04:16:38 34° E 04:21:14 10° SSE visible
08 Mar 5.9 03:36:17 10° NE 03:39:27 16° E 03:42:37 10° SE visible
09 Mar 3.8 04:37:08 10° NNE 04:42:10 57° E 04:47:08 10° S visible
09 Mar 6.8 17:37:32 10° WSW 17:39:05 11° W 17:40:37 10° WNW visible
10 Mar 5.2 04:00:48 10° NE 04:05:08 27° E 04:09:26 10° SSE visible
11 Mar 6.1 03:25:33 10° ENE 03:27:54 13° E 03:30:12 10° ESE visible
12 Mar 4.2 04:25:47 10° NNE 04:30:41 46° E 04:35:33 10° S visible
13 Mar 5.6 03:49:39 10° NE 03:53:35 22° E 03:57:30 10° SE visible
14 Mar 6.5 03:16:13 10° E 03:16:17 10° E 03:16:21 10° E visible
14 Mar 3.3 04:51:02 10° NNE 04:56:09 78° ESE 05:01:14 10° S visible
